Weather History for Red Oak, IA

Change the Weather History Date:

Thursday, December 12, 2013

  Actual Average Record
Temperature  
Mean Temperature 16 °F -  
Max Temperature 30 °F 38 °F 63 °F (1968)
Min Temperature 1 °F 19 °F -11 °F (1962)
Degree Days  
Heating Degree Days 50    
Moisture  
Dew Point 10 °F    
Average Humidity 77    
Maximum Humidity 93    
Minimum Humidity 64    
Precipitation  
Precipitation 0.00 in - - ()
Sea Level Pressure  
Sea Level Pressure 30.29 in    
Wind  
Wind Speed 6 mph (SSW)    
Max Wind Speed 10 mph    
Max Gust Speed -    
Visibility 10 miles    
Events      
Averages and records for this station are not official NWS values.
T = Trace of Precipitation, MM = Missing Value Source: NWS Daily Summary

Daily Weather History Graph

Daily Weather History Graph

Search for Another Location

Airport:

Trip Planner

Search our weather history database for the weather conditions in past years. The results will help you decide how hot, cold, wet, or windy it might be!

Date:

Astronomy

Dec. 12, 2013 Rise Set
Actual Time 7:36 AM CST 4:52 PM CST
Civil Twilight 7:05 AM CST 5:24 PM CST
Nautical Twilight 6:31 AM CST 5:58 PM CST
Astronomical Twilight 5:57 AM CST 6:32 PM CST
Moon 2:02 PM CST (12/12) 2:58 AM CST (12/12)
Length of Visible Light 10h 18m
Length of Day
9h 16m
Waxing Gibbous, 80% of the Moon is Illuminated
Dec 12
Waxing Gibbous
Dec 17
Full
Dec 25
Last Quarter
Jan 1
New
Jan 7
First Quarter

Hourly Weather History & Observations

Time (CST) Temp. Windchill Dew Point Humidity Pressure Visibility Wind Dir Wind Speed Gust Speed Precip Events Conditions
12:15 AM 1.4 °F -9.9 °F -4.0 °F 78% 30.50 in 10.0 mi SSW 5.8 mph - N/A   Clear
12:35 AM 3.2 °F -11.3 °F -4.0 °F 72% 30.49 in 10.0 mi South 9.2 mph - N/A   Clear
12:55 AM 3.2 °F -9.1 °F -2.2 °F 78% 30.48 in 10.0 mi SSW 6.9 mph - N/A   Clear
1:15 AM 3.2 °F -10.3 °F -2.2 °F 78% 30.47 in 10.0 mi SSW 8.1 mph - N/A   Clear
1:35 AM 3.2 °F -10.3 °F -2.2 °F 78% 30.46 in 10.0 mi SSW 8.1 mph - N/A   Clear
1:55 AM 3.2 °F -12.2 °F -2.2 °F 78% 30.45 in 10.0 mi SSW 10.4 mph - N/A   Clear
2:15 AM 5.0 °F -10.0 °F -2.2 °F 72% 30.45 in 10.0 mi SSW 10.4 mph - N/A   Clear
2:35 AM 5.0 °F -9.1 °F -2.2 °F 72% 30.44 in 10.0 mi South 9.2 mph - N/A   Clear
2:55 AM 5.0 °F -10.0 °F -2.2 °F 72% 30.44 in 10.0 mi SSW 10.4 mph - N/A   Clear
3:15 AM 5.0 °F -9.1 °F -0.4 °F 78% 30.43 in 10.0 mi SSW 9.2 mph - N/A   Clear
7:35 AM 5.0 °F -5.6 °F -0.4 °F 78% 30.38 in 10.0 mi SSW 5.8 mph - N/A   Clear
7:55 AM 5.0 °F -4.1 °F -0.4 °F 78% 30.39 in 10.0 mi SSW 4.6 mph - N/A   Clear
8:15 AM 6.8 °F - -0.4 °F 72% 30.39 in 10.0 mi Calm Calm - N/A   Clear
8:35 AM 6.8 °F -2.0 °F -0.4 °F 72% 30.38 in 10.0 mi South 4.6 mph - N/A   Clear
8:55 AM 8.6 °F -2.6 °F 1.4 °F 73% 30.38 in 10.0 mi South 6.9 mph - N/A   Clear
9:15 AM 10.4 °F -0.4 °F 3.2 °F 73% 30.38 in 10.0 mi South 6.9 mph - N/A   Clear
9:35 AM 12.2 °F 1.7 °F 5.0 °F 73% 30.38 in 10.0 mi South 6.9 mph - N/A   Clear
9:55 AM 14.0 °F 3.9 °F 6.8 °F 73% 30.38 in 10.0 mi South 6.9 mph - N/A   Clear
10:15 AM 17.6 °F 9.3 °F 8.6 °F 68% 30.38 in 10.0 mi South 5.8 mph - N/A   Clear
10:35 AM 17.6 °F 8.2 °F 8.6 °F 68% 30.37 in 10.0 mi South 6.9 mph - N/A   Clear
10:55 AM 19.4 °F 10.4 °F 12.2 °F 74% 30.36 in 10.0 mi South 6.9 mph - N/A   Clear
11:15 AM 21.2 °F 10.9 °F 12.2 °F 68% 30.35 in 10.0 mi SSW 9.2 mph - N/A   Clear
11:55 AM 24.8 °F 14.6 °F 14.0 °F 64% 30.33 in 10.0 mi SSW 10.4 mph - N/A   Clear
12:15 PM 24.8 °F 14.6 °F 15.8 °F 69% 30.33 in 10.0 mi SW 10.4 mph - N/A   Clear
12:35 PM 26.6 °F 17.5 °F 15.8 °F 64% 30.31 in 10.0 mi SSW 9.2 mph - N/A   Clear
12:55 PM 26.6 °F 16.8 °F 15.8 °F 64% 30.31 in 10.0 mi SSW 10.4 mph - N/A   Clear
1:15 PM 26.6 °F 16.8 °F 17.6 °F 69% 30.30 in 10.0 mi SSW 10.4 mph - N/A   Clear
1:35 PM 28.4 °F 19.7 °F 17.6 °F 64% 30.29 in 10.0 mi SSW 9.2 mph - N/A   Clear
1:55 PM 28.4 °F 19.7 °F 17.6 °F 64% 30.29 in 10.0 mi South 9.2 mph - N/A   Clear
2:15 PM 28.4 °F 21.2 °F 17.6 °F 64% 30.27 in 10.0 mi South 6.9 mph - N/A   Clear
2:35 PM 28.4 °F 19.7 °F 19.4 °F 69% 30.27 in 10.0 mi South 9.2 mph - N/A   Clear
2:55 PM 28.4 °F 20.4 °F 19.4 °F 69% 30.26 in 10.0 mi South 8.1 mph - N/A   Clear
3:15 PM 30.2 °F 22.6 °F 19.4 °F 64% 30.26 in 10.0 mi South 8.1 mph - N/A   Clear
3:35 PM 30.2 °F 21.9 °F 19.4 °F 64% 30.24 in 10.0 mi South 9.2 mph - N/A   Clear
3:55 PM 30.2 °F 25.4 °F 19.4 °F 64% 30.25 in 10.0 mi South 4.6 mph - N/A   Clear
4:15 PM 28.4 °F 20.4 °F 19.4 °F 69% 30.25 in 10.0 mi South 8.1 mph - N/A   Clear
4:35 PM 26.6 °F 20.0 °F 19.4 °F 74% 30.24 in 10.0 mi South 5.8 mph - N/A   Clear
4:55 PM 26.6 °F 22.6 °F 19.4 °F 74% 30.22 in 8.0 mi SSE 3.5 mph - N/A   Clear
5:15 PM 24.8 °F 20.5 °F 17.6 °F 74% 30.22 in 10.0 mi SE 3.5 mph - N/A   Clear
5:35 PM 23.0 °F - 17.6 °F 80% 30.21 in 10.0 mi Calm Calm - N/A   Clear
5:55 PM 21.2 °F 11.7 °F 15.8 °F 80% 30.20 in 10.0 mi South 8.1 mph - N/A   Clear
6:15 PM 23.0 °F 15.8 °F 17.6 °F 80% 30.20 in 10.0 mi South 5.8 mph - N/A   Clear
6:35 PM 21.2 °F 16.4 °F 17.6 °F 86% 30.20 in 10.0 mi SSW 3.5 mph - N/A   Clear
6:55 PM 21.2 °F - 17.6 °F 86% 30.20 in 10.0 mi Calm Calm - N/A   Clear
7:15 PM 21.2 °F - 17.6 °F 86% 30.20 in 10.0 mi Calm Calm - N/A   Clear
7:35 PM 15.8 °F - 12.2 °F 86% 30.19 in 10.0 mi Calm Calm - N/A   Clear
7:55 PM 15.8 °F - 14.0 °F 93% 30.19 in 10.0 mi Calm Calm - N/A   Clear
8:15 PM 14.0 °F - 12.2 °F 93% 30.17 in 10.0 mi Calm Calm - N/A   Clear
8:35 PM 15.8 °F - 14.0 °F 93% 30.17 in 10.0 mi Calm Calm - N/A   Clear
8:55 PM 14.0 °F - 10.4 °F 86% 30.16 in 10.0 mi Calm Calm - N/A   Clear
9:15 PM 14.0 °F - 12.2 °F 93% 30.15 in 10.0 mi Calm Calm - N/A   Clear
9:35 PM 14.0 °F - 10.4 °F 86% 30.14 in 10.0 mi Calm Calm - N/A   Clear
9:55 PM 14.0 °F - 10.4 °F 86% 30.14 in 10.0 mi Calm Calm - N/A   Clear
10:15 PM 12.2 °F - 8.6 °F 85% 30.13 in 10.0 mi Calm Calm - N/A   Clear
10:35 PM 14.0 °F - 12.2 °F 93% 30.13 in 10.0 mi Calm Calm - N/A   Clear
10:55 PM 12.2 °F - 10.4 °F 92% 30.12 in 10.0 mi Calm Calm - N/A   Clear
11:15 PM 14.0 °F - 12.2 °F 93% 30.11 in 10.0 mi Calm Calm - N/A   Clear
11:35 PM 12.2 °F - 8.6 °F 85% 30.11 in 10.0 mi Calm Calm - N/A   Clear
11:55 PM 12.2 °F - 10.4 °F 92% 30.10 in 10.0 mi Calm Calm - N/A   Clear